Zurück zum Katalog

COSMOS 2034

AktivMilitärPO
NORAD 20149·PAYLOAD·🇷🇺 Russia

Gestartet Jul 25, 1989 von Plesetsk Cosmodrome

Loading…

Nächste Überflüge (nächste 24 Stunden)

TLE

AktuellSource: Space-Track

Epoche: Sep 14, 2026, 11:00 UTC

1 20149U 89059A   26257.45853150  .00000063  00000-0  51336-4 0  9991
2 20149  82.9433 148.8290 0031429 359.0447 174.3741 13.73703248861369

Verfolge COSMOS 2034 in Echtzeit mit AllMySat

Download on the App Store